Wind_Speed
38 37 36 38 40 41 43 45 47 49 52 53 54 55 55 55 55 52 54 56 59 58 58 57 56 52 51 54 57 54 46 49
44 42 41 43 44 45 47 50 49 49 53 54 54 54 55 57 56 58 55 53 57 62 63 62 60 57 56 53 56 54 56 57
49 50 50 46 45 45 50 53 54 55 57 58 60 59 57 59 60 62 65 64 55 58 64 66 65 63 61 60 56 60 61 63
52 54 55 53 50 50 52 57 62 62 63 66 67 67 69 65 63 62 63 65 68 63 60 64 65 66 65 64 64 61 57 51
54 56 58 58 56 57 58 60 64 67 69 73 76 75 70 67 66 65 66 68 67 68 68 66 65 66 67 67 67 67 65 59
54 55 56 58 60 61 62 64 67 69 71 73 74 74 72 71 71 67 66 67 70 74 75 74 71 66 68 69 68 68 68 65
57 58 58 59 61 63 65 66 67 68 70 73 74 72 72 71 72 72 72 71 70 73 76 78 78 76 71 68 69 72 70 67
56 58 58 59 61 64 65 67 69 70 71 73 72 71 72 73 74 75 75 77 79 81 80 80 81 82 79 73 73 70 70 70
55 56 58 61 62 63 65 68 71 72 70 69 71 74 78 81 84 86 87 89 91 91 90 88 88 86 83 80 73 77 78 75
55 58 59 60 61 65 68 70 69 67 69 71 76 78 77 77 77 76 75 65 67 70 79 86 88 91 90 86 80 75 81 84
55 56 58 62 64 65 65 62 65 68 70 68 66 64 66 57 49 49 45 48 47 53 53 50 51 62 85 91 87 83 77 82
53 54 56 60 57 57 58 60 64 63 59 58 59 62 47 43 44 47 42 44 47 48 48 51 49 44 43 69 89 88 80 75
49 50 53 53 54 56 56 54 52 53 56 55 53 40 38 40 40 48 43 38 42 40 36 39 43 46 45 41 58 84 81 74
49 52 51 51 53 52 49 47 49 51 49 47 40 37 37 37 38 41 38 35 36 35 34 34 29 29 35 34 34 55 78 73
49 47 47 49 50 47 42 44 47 47 45 36 36 36 33 32 36 35 39 33 35 26 25 27 27 29 20 27 32 32 64 72
43 43 46 47 44 40 38 42 43 43 42 37 35 35 34 32 37 33 32 33 32 26 25 27 25 23 27 33 34 30 30 57
41 43 44 43 40 38 37 40 41 40 39 36 35 34 33 33 34 36 33 28 28 26 23 22 20 25 31 26 36 33 26 40
42 43 43 42 40 37 36 39 39 39 38 35 34 32 32 33 34 34 32 31 24 25 27 25 25 20 24 31 28 44 29 43
43 43 42 42 41 36 36 38 38 39 39 37 34 33 32 33 33 33 31 29 31 25 19 19 25 24 20 22 29 32 35 33
Wind_Direction
292 293 289 288 287 284 281 278 277 277 278 278 279 279 278 276 274 270 268 267 267 266 267 265 263 264 261 267 273 265 255 263
295 292 290 291 289 286 283 283 282 278 280 279 277 277 276 278 276 276 272 263 262 265 265 264 265 263 261 257 263 264 260 263
288 291 290 289 287 285 286 288 285 282 281 281 281 279 276 276 275 276 277 276 265 261 263 262 261 262 262 260 257 256 260 256
288 288 288 287 285 284 285 286 284 283 282 282 281 281 280 277 272 271 271 272 274 269 261 260 261 260 258 259 257 254 254 256
286 285 284 283 283 282 282 281 283 283 283 282 279 278 276 275 274 272 268 268 268 268 268 264 259 257 257 255 255 254 253 252
286 285 284 284 286 288 289 288 287 285 283 282 280 280 279 278 277 275 273 270 267 265 264 262 258 253 255 253 252 252 250 251
286 286 286 287 290 291 290 288 287 287 286 284 283 283 282 282 282 281 279 276 272 269 264 262 259 257 249 247 252 252 250 249
284 287 292 293 293 291 290 291 291 289 290 290 290 289 289 288 285 282 279 276 274 271 267 264 260 258 255 247 243 245 250 249
291 292 291 291 289 292 293 292 291 292 293 293 292 292 290 288 286 284 282 278 274 270 266 262 258 257 255 252 243 240 240 241
292 291 291 292 293 292 292 293 295 294 294 294 292 291 292 294 294 291 289 287 281 276 271 265 258 251 250 250 248 240 239 238
290 292 292 291 290 290 292 293 295 294 294 295 298 301 303 300 297 295 295 292 288 282 280 277 271 260 247 243 244 242 237 237
290 289 288 289 293 293 295 297 296 297 302 305 308 308 303 300 304 299 303 297 294 291 280 272 276 273 263 246 238 239 238 236
292 291 291 297 297 297 300 301 304 308 308 311 312 310 308 308 305 304 308 304 298 296 291 282 276 269 265 260 240 235 233 235
289 292 296 297 299 301 303 305 311 313 313 314 314 314 313 312 312 313 314 310 313 302 297 294 286 281 263 260 251 238 229 231
291 296 300 300 300 304 303 309 313 318 316 314 313 315 318 320 325 321 317 313 320 300 298 287 285 278 266 249 257 245 230 228
299 300 301 301 303 305 305 310 315 318 318 316 312 313 317 327 327 329 330 315 313 315 309 299 283 270 262 247 227 238 210 230
299 302 301 301 302 304 304 310 315 318 318 315 313 313 319 322 326 327 334 328 302 302 307 316 297 278 264 258 246 242 220 209
301 300 300 303 304 301 303 309 310 316 316 316 314 315 319 322 322 328 328 333 328 296 295 297 301 308 289 254 258 240 218 208
297 298 301 303 304 296 296 306 307 310 314 314 316 317 320 321 321 322 326 327 331 339 338 326 295 285 299 255 235 240 238 230
Height
5777 5774 5771 5769 5767 5765 5763 5761 5759 5757 5754 5751 5748 5745 5743 5742 5741 5741 5740 5738 5735 5734 5733 5732 5732 5733 5734 5735 5732 5734 5738 5739
5767 5765 5762 5759 5756 5753 5750 5748 5747 5745 5742 5740 5737 5733 5730 5726 5724 5723 5722 5724 5722 5720 5719 5719 5717 5718 5721 5723 5721 5723 5726 5726
5756 5753 5750 5748 5744 5742 5739 5736 5732 5730 5728 5725 5722 5720 5718 5714 5711 5707 5705 5704 5707 5706 5704 5703 5703 5703 5705 5708 5708 5707 5711 5712
5745 5741 5737 5734 5731 5729 5727 5723 5720 5716 5712 5708 5705 5703 5700 5698 5695 5691 5688 5687 5685 5687 5688 5687 5688 5687 5689 5691 5694 5692 5693 5697
5735 5731 5727 5723 5720 5716 5713 5710 5706 5701 5696 5691 5688 5685 5683 5681 5677 5674 5671 5666 5666 5665 5665 5667 5670 5671 5672 5674 5676 5677 5677 5681
5723 5719 5714 5709 5705 5701 5697 5692 5688 5683 5677 5672 5667 5664 5661 5659 5657 5655 5652 5648 5644 5643 5641 5643 5645 5650 5653 5656 5658 5660 5663 5664
5709 5704 5700 5695 5692 5687 5682 5675 5670 5666 5660 5654 5648 5643 5639 5635 5632 5629 5626 5624 5623 5619 5617 5618 5620 5622 5629 5633 5638 5641 5644 5647
5697 5692 5688 5683 5677 5671 5665 5660 5653 5646 5640 5634 5626 5620 5615 5611 5608 5605 5602 5600 5596 5594 5593 5591 5593 5594 5599 5609 5616 5621 5624 5628
5684 5679 5674 5668 5661 5656 5650 5644 5637 5629 5623 5617 5609 5602 5596 5590 5583 5579 5575 5570 5565 5562 5561 5562 5563 5566 5572 5579 5590 5598 5602 5607
5670 5664 5659 5653 5648 5641 5635 5628 5620 5613 5607 5601 5593 5584 5575 5566 5557 5549 5543 5537 5531 5526 5525 5527 5528 5535 5543 5550 5562 5573 5577 5584
5657 5653 5646 5640 5635 5627 5621 5615 5606 5599 5592 5585 5576 5567 5558 5548 5540 5534 5530 5524 5518 5511 5507 5503 5501 5504 5509 5521 5533 5543 5554 5563
5645 5639 5633 5626 5622 5615 5609 5603 5594 5585 5578 5571 5562 5552 5545 5538 5530 5523 5517 5510 5504 5497 5491 5490 5488 5489 5488 5493 5504 5516 5532 5543
5632 5625 5620 5616 5610 5603 5597 5590 5582 5574 5566 5559 5549 5542 5535 5528 5521 5512 5505 5498 5491 5484 5481 5477 5475 5474 5476 5478 5481 5491 5507 5523
5618 5614 5611 5605 5598 5591 5585 5578 5573 5565 5557 5549 5541 5534 5528 5520 5513 5504 5496 5489 5481 5476 5472 5469 5466 5463 5464 5468 5471 5474 5490 5505
5608 5605 5599 5594 5587 5582 5576 5571 5564 5557 5549 5542 5536 5529 5522 5514 5507 5499 5489 5483 5476 5470 5466 5462 5461 5458 5457 5460 5463 5466 5476 5490
5599 5594 5589 5583 5578 5574 5569 5563 5557 5549 5541 5534 5529 5523 5516 5508 5502 5495 5486 5478 5473 5467 5462 5457 5454 5453 5453 5454 5454 5459 5467 5477
5590 5585 5579 5575 5571 5566 5561 5555 5549 5542 5535 5529 5523 5516 5510 5503 5497 5491 5483 5475 5469 5465 5461 5455 5449 5447 5447 5448 5449 5452 5457 5467
5580 5575 5571 5566 5561 5557 5552 5547 5542 5535 5530 5524 5517 5511 5504 5498 5492 5486 5480 5474 5467 5461 5457 5453 5449 5444 5441 5441 5442 5446 5451 5459
5571 5567 5562 5557 5552 5548 5544 5540 5535 5529 5523 5518 5512 5506 5499 5493 5487 5482 5477 5471 5465 5459 5454 5449 5445 5441 5436 5432 5435 5438 5445 5452